sat.trackr.live / text

‹ back to catalog

STARLINK-11151 [DTC]

NORAD 60049 · 2024-112M

PAYLOAD ACTIVE UNKNOWN

§ Identity

Operator
Country
US
Launch date
2024-06-08
Launch site
AFWTR
Launch vehicle
Mass (kg)
RCS (m²)

Purposes: comms

External: N2YO · Heavens-Above · Gunter

§ Orbital elements

Epoch: 2026-09-21T14:18:54.215712Z

Period
91.74 min
Inclination
53.1589°
Eccentricity
0.0000793
Mean motion
15.69735156 rev/d
Perigee alt
359.1 km
Apogee alt
360.2 km
Semi-major
6,737.8 km
B*
-4.2607e-5
RAAN
20.2798°
Arg perigee
113.9384°
Mean anomaly
246.1717°
Rev number
13,175

§ Raw data

STARLINK-11151 [DTC]1 60049U 24112M   26264.59646083 -.00005752  00000+0 -42607-4 0  99932 60049  53.1589  20.2798 0000793 113.9384 246.1717 15.69735156131751

JSON: /api/v1/satellites/60049 · /tle

For live sub-satellite position, see the globe view (requires WebGL).

§ Visibility from observer

Set your observer location to see the next 7 days of passes ≥ 10°. The values pass through the URL so the page stays shareable.

No JS? Fill the form by hand. The geolocation button needs JavaScript.